{"data":{"norad_id":57389,"intl_designator":"2023-100D","name":"STARLING 3","alt_names":[],"object_type":"PAYLOAD","status":"ACTIVE","operator":null,"country":"US","launch_date":"2023-07-18","launch_site_code":"RLLB","launch_vehicle":null,"mission":null,"orbit_class":"UNKNOWN","rcs_meters":null,"size_class":null,"mass_kg":null,"dimensions":null,"purposes":[],"wikipedia_slug":null,"has_3d_model":false,"image_url":null,"decayed_at":null,"tle_current":{"epoch":"2026-05-25T00:01:35.324256Z","epoch_age_seconds":68899,"freshness":"FRESH","line1":"1 57389U 23100D   26145.00110329  .00005620  00000+0  33213-3 0  9999","line2":"2 57389  99.5067 160.1481 0005492 173.5397 186.5899 15.12051794156560","mean_motion":15.12051794,"eccentricity":0.0005492,"inclination_deg":99.5067,"raan_deg":160.1481,"arg_perigee_deg":173.5397,"mean_anomaly_deg":186.5899,"bstar":0.00033213,"rev_number":15656,"period_min":95.234832941179,"perigee_km":526.14968329223,"apogee_km":533.73751902454,"semimajor_km":6908.0806011584,"source":"CELESTRAK","updated_at":"2026-05-25T13:38:00.037399Z"}}}